Shannon, GA

9:35 PM EDT on September 24, 2016 (GMT -0400)
Russell

Weather History for KRMG - August, 2014

Change the Weather History Date:

Monday, August 4, 2014

  Actual Average Record
Temperature  
Mean Temperature 78 °F 80 °F  
Max Temperature 93 °F 90 °F 100 °F (2006)
Min Temperature 62 °F 69 °F 60 °F (1998)
Cooling Degree Days 13 15  
Month to date cooling degree days 53 60  
Year to date cooling degree days 993 1004  
Since 1 June cooling degree days 792 836  
Growing Degree Days 28 (Base 50)    
Moisture  
Dew Point 61 °F    
Average Humidity 62    
Maximum Humidity 93    
Minimum Humidity 30    
Precipitation  
Precipitation 0.00 in 0.12 in 0.61 in (2011)
Month to date precipitation 0.00 0.45  
Year to date precipitation 30.91 31.74  
Sea Level Pressure  
Sea Level Pressure 30.03 in    
Wind  
Wind Speed 3 mph (North)    
Max Wind Speed 15 mph    
Max Gust Speed 22 mph    
Visibility 9 miles    
Events      
T = Trace of Precipitation, MM = Missing Value Source: NWS Daily Summary

Daily Weather History Graph

Daily Weather History Graph

Search for Another Location

Airport or City:

Trip Planner

Search our weather history database for the weather conditions in past years. The results will help you decide how hot, cold, wet, or windy it might be!

Date:

Astronomy

Aug. 04, 2014 Rise Set
Actual Time 6:53 AM EDT 8:39 PM EDT
Civil Twilight 6:26 AM EDT 9:06 PM EDT
Nautical Twilight 5:53 AM EDT 9:39 PM EDT
Astronomical Twilight 5:18 AM EDT 10:14 PM EDT
Moon 2:51 PM EDT (8/4) 12:57 AM EDT (8/4)
Length of Visible Light 14h 40m
Length of Day
13h 45m
First Quarter, 57% of the Moon is Illuminated
Aug 4
First Quarter
Aug 10
Full
Aug 17
Last Quarter
Aug 25
New
Sep 2
First Quarter

Hourly Weather History & Observations

Time (EDT) Temp. Heat Index Dew Point Humidity Pressure Visibility Wind Dir Wind Speed Gust Speed Precip Events Conditions
12:53 AM 68.0 °F - 64.4 °F 88% 30.06 in 10.0 mi NNE 3.5 mph - N/A   Clear
1:53 AM 66.9 °F - 64.0 °F 90% 30.03 in 9.0 mi Calm Calm - N/A   Clear
2:53 AM 66.0 °F - 63.0 °F 90% 30.02 in 8.0 mi NNE 3.5 mph - N/A   Clear
3:53 AM 64.9 °F - 63.0 °F 93% 30.02 in 8.0 mi Calm Calm - N/A   Clear
4:53 AM 64.0 °F - 62.1 °F 93% 30.03 in 8.0 mi North 3.5 mph - N/A   Clear
5:53 AM 63.0 °F - 61.0 °F 93% 30.04 in 7.0 mi NNE 3.5 mph - N/A   Clear
6:53 AM 62.1 °F - 61.0 °F 96% 30.05 in 6.0 mi Calm Calm - N/A   Clear
7:53 AM 64.9 °F - 62.1 °F 90% 30.07 in 6.0 mi Calm Calm - N/A   Clear
8:53 AM 70.0 °F - 63.0 °F 78% 30.07 in 9.0 mi NE 3.5 mph - N/A   Clear
9:53 AM 75.0 °F - 64.0 °F 69% 30.09 in 9.0 mi NNE 3.5 mph - N/A   Clear
10:53 AM 80.1 °F 82.1 °F 66.0 °F 62% 30.09 in 10.0 mi Calm Calm - N/A   Clear
11:53 AM 84.0 °F 86.5 °F 66.9 °F 56% 30.07 in 10.0 mi NW 4.6 mph - N/A   Clear
12:53 PM 88.0 °F 88.4 °F 62.1 °F 42% 30.06 in 10.0 mi Variable 5.8 mph - N/A   Clear
1:53 PM 89.1 °F 87.7 °F 57.0 °F 34% 30.04 in 10.0 mi North 8.1 mph - N/A   Clear
2:53 PM 89.1 °F 87.7 °F 57.0 °F 34% 30.01 in 10.0 mi Calm Calm - N/A   Clear
3:53 PM 91.9 °F 90.3 °F 55.9 °F 30% 29.99 in 10.0 mi WNW 6.9 mph - N/A   Clear
4:53 PM 91.9 °F 90.6 °F 57.0 °F 31% 29.98 in 10.0 mi NNW 8.1 mph - N/A   Mostly Cloudy
5:53 PM 90.0 °F 88.1 °F 55.9 °F 31% 29.98 in 10.0 mi North 9.2 mph - N/A   Partly Cloudy
6:54 PM 89.1 °F 87.3 °F 55.9 °F 32% 29.98 in 10.0 mi North 9.2 mph - N/A   Unknown
7:53 PM 84.9 °F 83.7 °F 55.9 °F 37% 29.99 in 10.0 mi North 5.8 mph - N/A   Clear
8:53 PM 75.9 °F - 59.0 °F 56% 30.00 in 10.0 mi Calm Calm - N/A   Clear
9:53 PM 73.0 °F - 60.1 °F 64% 30.02 in 10.0 mi Calm Calm - N/A   Clear
10:53 PM 68.0 °F - 61.0 °F 78% 30.03 in 10.0 mi Calm Calm - N/A   Clear
11:53 PM 66.0 °F - 60.1 °F 81% 30.03 in 10.0 mi Calm Calm - N/A   Clear